| time (UTC) | temp F | wind direction | speed knots | gust knots | rain 1hr in | rain 24hr in | rain mn in | humidity % | barometer mb |
| 20260503013033 | 62 | 99 | 0.0 | 2.6 | 0.00 | 0.00 | 0.00 | 38 | 1010.1 |
| 20260503011535 | 62 | 99 | 1.7 | 5.2 | 0.00 | 0.00 | 0.00 | 37 | 1010.0 |
| 20260503010031 | 62 | 99 | 0.9 | 3.5 | 0.00 | 0.00 | 0.00 | 37 | 1010.2 |
| 20260503004530 | 62 | 106 | 0.9 | 3.5 | 0.00 | 0.00 | 0.00 | 37 | 1010.3 |
| 20260503003029 | 62 | 104 | 1.7 | 7.0 | 0.00 | 0.00 | 0.00 | 38 | 1010.4 |
| 20260503001529 | 62 | 108 | 1.7 | 6.1 | 0.00 | 0.00 | 0.00 | 37 | 1010.5 |
| 20260503000028 | 62 | 121 | 0.9 | 3.5 | 0.00 | 0.00 | 0.00 | 37 | 1010.5 |
| 20260502234531 | 62 | 123 | 3.5 | 9.6 | 0.00 | 0.00 | 0.00 | 36 | 1010.7 |
| 20260502233034 | 63 | 94 | 0.9 | 5.2 | 0.00 | 0.00 | 0.00 | 36 | 1010.7 |
| 20260502231532 | 63 | 8 | 1.7 | 3.5 | 0.00 | 0.00 | 0.00 | 37 | 1010.9 |
| 20260502230025 | 62 | 3 | 2.6 | 6.1 | 0.00 | 0.00 | 0.00 | 37 | 1011.1 |
| 20260502224523 | 63 | 15 | 4.3 | 7.0 | 0.00 | 0.00 | 0.00 | 37 | 1011.2 |
| 20260502223021 | 63 | 163 | 4.3 | 7.0 | 0.00 | 0.00 | 0.00 | 37 | 1011.5 |
| 20260502221520 | 63 | 78 | 1.7 | 4.3 | 0.00 | 0.00 | 0.00 | 37 | 1011.6 |
| 20260502220026 | 61 | 31 | 1.7 | 5.2 | 0.00 | 0.00 | 0.00 | 38 | 1012.0 |
| 20260502214517 | 61 | 32 | 1.7 | 5.2 | 0.00 | 0.00 | 0.00 | 39 | 1012.2 |
| 20260502213017 | 61 | 17 | 0.9 | 2.6 | 0.00 | 0.00 | 0.00 | 40 | 1012.2 |
| 20260502211521 | 61 | 4 | 1.7 | 8.7 | 0.00 | 0.00 | 0.00 | 39 | 1012.4 |
| 20260502210015 | 61 | 19 | 1.7 | 7.0 | 0.00 | 0.00 | 0.00 | 39 | 1012.4 |
| 20260502204514 | 61 | 23 | 6.1 | 9.6 | 0.00 | 0.00 | 0.00 | 38 | 1012.6 |
| 20260502203012 | 61 | 5 | 2.6 | 8.7 | 0.00 | 0.00 | 0.00 | 40 | 1012.6 |
| 20260502201511 | 60 | 38 | 1.7 | 9.6 | 0.00 | 0.00 | 0.00 | 42 | 1012.8 |
| 20260502200011 | 60 | 64 | 7.0 | 12.2 | 0.00 | 0.00 | 0.00 | 41 | 1012.9 |
| 20260502194509 | 61 | 82 | 7.8 | 13.0 | 0.00 | 0.00 | 0.00 | 42 | 1013.0 |
| 20260502193011 | 59 | 85 | 7.0 | 13.0 | 0.00 | 0.00 | 0.00 | 44 | 1013.2 |
| 20260502191507 | 58 | 52 | 7.0 | 10.4 | 0.00 | 0.00 | 0.00 | 46 | 1013.5 |
| 20260502190010 | 57 | 62 | 8.7 | 13.9 | 0.00 | 0.00 | 0.00 | 45 | 1013.7 |
| 20260502184511 | 58 | 50 | 7.0 | 13.9 | 0.00 | 0.00 | 0.00 | 45 | 1013.7 |
| 20260502183006 | 58 | 15 | 5.2 | 12.2 | 0.00 | 0.00 | 0.00 | 46 | 1013.7 |
| 20260502181505 | 58 | 45 | 6.1 | 12.2 | 0.00 | 0.00 | 0.00 | 44 | 1013.7 |
| 20260502163002 | 58 | 46 | 8.7 | 17.4 | 0.00 | 0.00 | 0.00 | 43 | 1013.6 |
| 20260502161501 | 58 | 50 | 8.7 | 13.0 | 0.00 | 0.00 | 0.00 | 44 | 1013.6 |
| 20260502151611 | 58 | 43 | 11.3 | 16.5 | 0.00 | 0.00 | 0.00 | 44 | 1013.5 |
| 20260502150109 | 57 | 65 | 9.6 | 15.6 | 0.00 | 0.00 | 0.00 | 44 | 1013.5 |
| 20260502123049 | 46 | 22 | 5.2 | 7.0 | 0.00 | 0.00 | 0.00 | 59 | 1013.0 |
| 20260502121549 | 46 | 21 | 5.2 | 7.8 | 0.00 | 0.00 | 0.00 | 58 | 1012.8 |
| 20260502114541 | 47 | 37 | 7.0 | 13.0 | 0.00 | 0.00 | 0.00 | 57 | 1012.5 |
| 20260502113038 | 47 | 45 | 8.7 | 13.0 | 0.00 | 0.00 | 0.00 | 56 | 1012.3 |
| 20260502111535 | 48 | 40 | 8.7 | 17.4 | 0.00 | 0.00 | 0.00 | 55 | 1012.4 |
| 20260502110033 | 48 | 49 | 8.7 | 13.0 | 0.00 | 0.00 | 0.00 | 54 | 1012.1 |
| 20260502104542 | 48 | 39 | 8.7 | 13.9 | 0.00 | 0.00 | 0.00 | 53 | 1011.7 |
| 20260502103029 | 49 | 43 | 8.7 | 15.6 | 0.00 | 0.00 | 0.00 | 51 | 1011.6 |
| 20260502101525 | 49 | 42 | 9.6 | 15.6 | 0.00 | 0.00 | 0.00 | 49 | 1011.3 |
| 20260502091522 | 50 | 44 | 7.0 | 10.4 | 0.00 | 0.00 | 0.00 | 46 | 1010.6 |
| 20260502070058 | 60 | 4 | 1.7 | 3.5 | 0.00 | 0.00 | 0.00 | 27 | 1009.7 |
| 20260502064603 | 58 | 5 | 1.7 | 4.3 | 0.00 | 0.00 | 0.00 | 30 | 1009.6 |
| 20260502063047 | 56 | 3 | 2.6 | 4.3 | 0.00 | 0.00 | 0.00 | 31 | 1009.7 |
| 20260502061544 | 55 | 360 | 3.5 | 5.2 | 0.00 | 0.00 | 0.00 | 33 | 1009.7 |
| 20260502060040 | 53 | 358 | 5.2 | 6.1 | 0.00 | 0.00 | 0.00 | 35 | 1009.6 |
| 20260502054540 | 52 | 1 | 5.2 | 7.0 | 0.00 | 0.00 | 0.00 | 35 | 1009.6 |
| 20260502053039 | 55 | 10 | 5.2 | 6.1 | 0.00 | 0.00 | 0.00 | 32 | 1009.5 |
| 20260502051558 | 57 | 356 | 2.6 | 6.1 | 0.00 | 0.00 | 0.00 | 30 | 1009.5 |
| 20260502050038 | 56 | 344 | 3.5 | 6.1 | 0.00 | 0.00 | 0.00 | 32 | 1009.5 |
| 20260502044537 | 55 | 300 | 7.8 | 10.4 | 0.00 | 0.00 | 0.00 | 34 | 1009.5 |
| 20260502043042 | 57 | 354 | 3.5 | 7.0 | 0.00 | 0.00 | 0.00 | 31 | 1009.3 |
| 20260502041536 | 55 | 329 | 3.5 | 7.8 | 0.00 | 0.00 | 0.00 | 35 | 1009.3 |
| 20260502040036 | 53 | 304 | 6.1 | 10.4 | 0.00 | 0.00 | 0.00 | 36 | 1009.2 |
| 20260502034544 | 58 | 309 | 4.3 | 7.0 | 0.00 | 0.00 | 0.00 | 29 | 1008.9 |
| 20260502033048 | 61 | 315 | 4.3 | 7.0 | 0.00 | 0.00 | 0.00 | 26 | 1008.9 |
| 20260502031545 | 62 | 333 | 2.6 | 6.1 | 0.00 | 0.00 | 0.00 | 27 | 1008.9 |
| 20260502030035 | 63 | 327 | 2.6 | 4.3 | 0.00 | 0.00 | 0.00 | 26 | 1008.8 |
| 20260502024534 | 63 | 320 | 1.7 | 4.3 | 0.00 | 0.00 | 0.00 | 26 | 1008.6 |
| 20260502023033 | 65 | 340 | 0.9 | 2.6 | 0.00 | 0.00 | 0.00 | 24 | 1008.5 |
| 20260502021533 | 66 | 339 | 1.7 | 6.1 | 0.00 | 0.00 | 0.00 | 23 | 1008.5 |
| 20260502020033 | 67 | 333 | 2.6 | 7.0 | 0.00 | 0.00 | 0.00 | 23 | 1008.3 |
| 20260502014533 | 70 | 291 | 0.0 | 6.1 | 0.00 | 0.00 | 0.00 | 21 | 1008.2 |